DECAYED

COSMOS 1408 DEB, 51435 (Decayed)

Orbit data source: Space-Track

COSMOS 1408 DEB, 51435 was space debris in LEO originally from a launch on Thu, 16 Sep 1982 UTC launched from the Plesetsk Missile And Space Complex (PKMTR). Cosmos 1408 debris is a result of deliberate destruction of the defunct Soviet-era reconnaissance satellite Cosmos 1408 by a Russian anti-satellite missile in 2021. This event added many debris pieces to Earth's orbit, complicating space navigation and increasing collision risks for operational satellites and the International Space Station. The Cosmos 1408 debris has heightened concerns about space safety and militarization, emphasizing the urgent need for comprehensive space debris management strategies.

Not visible in the next 10 days
Identifier
51435, 1982-092BKH
Orbit
Decayed
Country
Flag of CISCIS
Related business
Manufacturer
Yuzhnoe
Mission
Decayed spacecraft
Bus & Motor
Unknown
Mass
Unknown
Launch date (UTC)
1982-09-16 (44 years ago)
Launch vehicle
Unknown
Launch site
Plesetsk Missile And Space Complex (PKMTR)
Object type
Payload
Rocket body
Debris
Shape & HBR
Unknown shape, 0.1 m
Radar Cross Section
Small (<0.1 m²)

Expand to show TLE details & history
Last TLE update: 1 year ago

TLE from 1 year ago
0 COSMOS 1408 DEB
1 51435U 82092BKH 25058.11572692  .01625588  20421-2  16040-2 0  9991
2 51435  82.5303   3.5470 0019590 122.4123 237.9060 16.11428427173722
Epoch: 2025-02-27T02:46Z
TLE epoch observation values (Epoch: 2025-02-27T02:46:38.805Z)
Latitude
-0.00003°
Longitude
164.68978°
Altitude
253.05 km
Speed
7.751 km/s
True Right ascension
00h 14m 11s
True Declination
0° 00' 00"
Sunlit
Object was in daylight at epoch
Visualization orbit readout
Latitude
Unknown
Longitude
Unknown
Altitude
Unknown
Speed
Unknown
Apparent Right ascension
Unknown
Apparent Declination
Unknown
Sunlit
N/A
Visualization observer readout
Local Sidereal Time
21:39:17
Azimuth
Unknown
Elevation
Unknown
Doppler factor
Unknown
Orbital elements
Apogee altitude
252.74 km
Perigee altitude
226.811 km
Semi-major axis
6,617.913 km
Eccentricity
0.00196
Inclination
82.5303°
RAAN
3.547°
Arg. of periapsis
122.4123°
True anomaly
237.71607°
Mean anomaly
237.906°
Eccentric anomaly
237.81101°
Mean motion
4.03145 °/min
Orbital period
89.3 mins
BSTAR
0.001604

Documentation

Showing up to 5 results
|